Tracking 18980 objects as of 19-Feb-2018
HD Live streaming from Space Station
objects crossing your sky now

RADUGA 31

Track RADUGA 31 now!
RADUGA 31 is classified as:


NORAD ID: 23010
Int'l Code: 1994-012A
Perigee: 35,763.8 km
Apogee: 35,792.8 km
Inclination: 14.8 °
Period: 1,435.3 minutes
Semi major axis: 42149 km
RCS: 3.1622 m2 (large)
Launch date: February 18, 1994
Source: Commonwealth of Independent States (former USSR) (CIS)
Launch site: TYURATAM MISSILE AND SPACE COMPLEX (TTMTR)
aabbcc
Your satellite tracking list
Your tracking list is empty




NASA's NSSDC Master Catalog

Two Line Element Set (TLE):
1 23010U 94012A   18049.59294823 +.00000035 +00000-0 +00000-0 0  9994
2 23010 014.8392 013.9624 0003435 313.5988 091.6043 01.00326840087868
Source of the keplerian elements: AFSPC